星链-1524 (STARLINK-1524 )

导读

STARLINK-1524是美国太空探索技术公司SpaceX星链星座中的一员,于2020年8月7日发射升空,属于星链项目的早期组网卫星,运行于近地低轨道。星链项目旨在通过大规模低轨卫星组网,为全球提供高速低延迟的卫星互联网服务,可覆盖偏远地区,并在军事、应急通信领域发挥作用,STARLINK-1524也为星链全球网络构建贡献了力量。

Basic Information
目录编号:
46047
目录名称:
STARLINK-1524
国际标识:
2020-055W
轨道中心:
EARTH
卫星名称:
星链-1524
卫星全名:
星链-1524 (STARLINK-1524 )
卫星状态:
在轨 (已飞行2219 天)
发射日期:
2020-08-07 UTC
国别 :
美国 (US)
星等 :
--
Orbit Information
数据来源 国际轨道数据 AOE轨道数据
星历时间 2026-09-04T15:02:33+0800
8小时前
查看轨道信息
2026-09-02T16:00:00+0800
2天前
查看轨道信息
半长轴 6848.89km 6848.87km
偏心率 0.0001295 0.0001394
轨道倾角 53.159° 53.160°
近地点辐角 88.085° 73.201°
升交点赤经 2.856° 11.978°
平近点角 272.030° 272.611°
近地点 469.866km 469.778km
远地点 471.64km 471.688km
周期 94.013分钟 94.013分钟
每日圈数 15.316957 15.317024
Detailed Information
固有亮度:
5
最大亮度:
2.5
卫星平台:
Starlink V1.0
覆盖范围:
全球
运营商:
太空探索技术公司
运营商所在国:
美国
制造商(研发单位):
太空探索技术公司
制造商所在国:
美国
使用方式:
暂无
Satellite Introduction
星链(Starlink)计划是由太空探索技术公司(SpaceX)提出的一个巨型低轨卫星互联网星座项目,计划在2019年至2024年间在太空搭建由约1.2万颗卫星组成的“星链”网络,其中1584颗将部署在地球上空550千米处的近地轨道,并从2020年开始工作。该卫星仍在工作。
2D Orbit Map
3D Orbit Map
Orbit Altitude Analysis Chart
Orbit Inclination Analysis Chart
Orbit Comprehensive Analysis Chart
View Comprehensive Chart
Conjunction Data List
Event ID Objects TCA Miss Dist (km) Collision Risk Probability Collision Risk Index (CRI) Action
CDM_260903-030304-604704-835922
2026-09-03T
03:03:22+0000
2.104 km
极远距离
2.020537E-6 低风险 0.41
CDM_260904-081404-604706-538321
2026-09-04T
08:14:45+0000
2.674 km
极远距离
1.424939E-6 低风险 0.38
CDM_260905-090104-604706-803421
2026-09-05T
09:01:35+0000
2.906 km
极远距离
1.381579E-6 低风险 0.38
CDM_260828-105304-604706-922021
2026-08-28T
10:53:06+0000
2.962 km
极远距离
1.314074E-6 低风险 0.37
CDM_260903-083204-604704-835922
2026-09-03T
08:32:10+0000
2.638 km
极远距离
1.298894E-6 低风险 0.37
CDM_260905-052504-604706-878321
2026-09-05T
05:25:22+0000
2.626 km
极远距离
1.286631E-6 低风险 0.37